Erie, CO

4:11 PM MST on November 20, 2017 (GMT -0700)
Erie Municipal Airport

Weather History for KEIK - September, 2013

Change the Weather History Date:

Thursday, September 19, 2013

  Actual Average (KBJC) Record (KBJC)
Temperature  
Mean Temperature 58 °F -  
Max Temperature 66 °F 71 °F 93 °F (2010)
Min Temperature 51 °F 48 °F 31 °F (1988)
Degree Days  
Heating Degree Days 6    
Growing Degree Days 8 (Base 50)    
Moisture  
Dew Point 44 °F    
Average Humidity 59    
Maximum Humidity 88    
Minimum Humidity 41    
Precipitation  
Precipitation 0.00 in - - ()
Sea Level Pressure  
Sea Level Pressure 30.11 in    
Wind  
Wind Speed 3 mph (NE)    
Max Wind Speed 10 mph    
Max Gust Speed -    
Visibility 10 miles    
Events Thunderstorm    
Averages and records for this station are not official NWS values.
T = Trace of Precipitation, MM = Missing Value Source: NWS Daily Summary

Daily Weather History Graph

Daily Weather History Graph

Search for Another Location

Airport or City:

Trip Planner

Search our weather history database for the weather conditions in past years. The results will help you decide how hot, cold, wet, or windy it might be!

Date:

Astronomy

Sep. 19, 2013 Rise Set
Actual Time 6:45 AM MDT 7:01 PM MDT
Civil Twilight 6:18 AM MDT 7:28 PM MDT
Nautical Twilight 5:46 AM MDT 8:00 PM MDT
Astronomical Twilight 5:13 AM MDT 8:32 PM MDT
Moon 7:01 PM MDT (9/19) 6:57 AM MDT (9/19)
Length of Visible Light 13h 10m
Length of Day
12h 16m
Full, 100% of the Moon is Illuminated
Sep 19
Full
Sep 26
Last Quarter
Oct 4
New
Oct 11
First Quarter
Oct 18
Full

Hourly Weather History & Observations

Time (MDT) Temp. Dew Point Humidity Pressure Visibility Wind Dir Wind Speed Gust Speed Precip Events Conditions
12:14 AM 62.6 °F 46.2 °F 55% 29.94 in 10.0 mi Calm Calm - N/A   Clear
12:34 AM 60.3 °F 48.9 °F 66% 29.94 in 10.0 mi Calm Calm - N/A   Clear
12:54 AM 61.0 °F 48.2 °F 63% 29.95 in 10.0 mi West 4.6 mph - N/A   Clear
1:14 AM 62.6 °F 45.5 °F 54% 29.95 in 10.0 mi Calm Calm - N/A   Clear
1:34 AM 61.9 °F 47.1 °F 58% 29.96 in 10.0 mi Calm Calm - N/A   Scattered Clouds
1:54 AM 61.0 °F 48.4 °F 63% 29.96 in 10.0 mi Calm Calm - N/A   Scattered Clouds
2:14 AM 59.9 °F 49.5 °F 68% 29.97 in 10.0 mi Calm Calm - N/A   Clear
2:34 AM 60.4 °F 49.6 °F 68% 29.97 in 10.0 mi Calm Calm - N/A   Clear
2:54 AM 59.9 °F 49.8 °F 69% 29.97 in 10.0 mi SSW 3.5 mph - N/A   Clear
3:14 AM 59.0 °F 49.1 °F 70% 29.98 in 10.0 mi Calm Calm - N/A   Clear
3:34 AM 58.1 °F 49.3 °F 72% 29.99 in 10.0 mi SE 3.5 mph - N/A Thunderstorm Clear
3:54 AM 59.7 °F 46.8 °F 62% 29.99 in 10.0 mi East 6.9 mph - N/A   Clear
4:14 AM 59.9 °F 46.0 °F 60% 30.00 in 10.0 mi East 3.5 mph - N/A   Clear
4:34 AM 58.3 °F 44.8 °F 61% 30.01 in 10.0 mi ENE 4.6 mph - N/A Thunderstorm Clear
4:54 AM 56.7 °F 43.9 °F 62% 30.02 in 10.0 mi NE 3.5 mph - N/A   Clear
5:14 AM 55.2 °F 43.7 °F 65% 30.07 in 10.0 mi NW 3.5 mph - N/A   Scattered Clouds
5:34 AM 55.8 °F 41.2 °F 58% 30.07 in 10.0 mi NNE 6.9 mph - N/A Thunderstorm Thunderstorm
5:54 AM 56.3 °F 38.7 °F 52% 30.07 in 10.0 mi NE 6.9 mph - N/A   Scattered Clouds
6:14 AM 55.2 °F 40.3 °F 57% 30.07 in 10.0 mi ENE 4.6 mph - N/A   Clear
6:34 AM 54.0 °F 41.2 °F 62% 30.07 in 10.0 mi Calm Calm - N/A   Scattered Clouds
6:54 AM 54.0 °F 42.8 °F 66% 30.06 in 10.0 mi ESE 10.4 mph - N/A   Scattered Clouds
7:14 AM 54.0 °F 43.3 °F 67% 30.10 in 10.0 mi Calm Calm - N/A   Scattered Clouds
7:34 AM 55.2 °F 44.6 °F 67% 30.10 in 10.0 mi Calm Calm - N/A   Scattered Clouds
7:54 AM 54.1 °F 45.7 °F 73% 30.13 in 10.0 mi North 9.2 mph - N/A   Scattered Clouds
8:14 AM 54.7 °F 45.5 °F 71% 30.14 in 10.0 mi North 4.6 mph - N/A   Clear
8:34 AM 54.7 °F 45.3 °F 71% 30.14 in 10.0 mi North 4.6 mph - N/A   Clear
8:54 AM 56.3 °F 44.4 °F 64% 30.15 in 10.0 mi North 8.1 mph - N/A   Clear
9:14 AM 56.7 °F 43.5 °F 61% 30.16 in 10.0 mi North 10.4 mph - N/A   Clear
9:34 AM 57.0 °F 43.0 °F 59% 30.17 in 10.0 mi NNE 6.9 mph - N/A   Clear
9:54 AM 58.1 °F 42.4 °F 56% 30.17 in 10.0 mi NNE 6.9 mph - N/A   Clear
10:14 AM 58.1 °F 41.0 °F 53% 30.18 in 10.0 mi North 4.6 mph - N/A   Clear
10:34 AM 58.6 °F 40.6 °F 51% 30.18 in 10.0 mi Calm Calm - N/A   Clear
10:54 AM 58.6 °F 40.8 °F 52% 30.18 in 10.0 mi NE 8.1 mph - N/A   Scattered Clouds
11:14 AM 58.3 °F 39.4 °F 49% 30.18 in 10.0 mi Calm Calm - N/A   Mostly Cloudy
11:34 AM 58.8 °F 40.3 °F 50% 30.18 in 10.0 mi Calm Calm - N/A   Mostly Cloudy
11:54 AM 59.7 °F 41.0 °F 50% 30.18 in 10.0 mi North 6.9 mph - N/A   Scattered Clouds
12:14 PM 60.6 °F 39.2 °F 45% 30.17 in 10.0 mi North 4.6 mph - N/A   Clear
12:34 PM 60.4 °F 41.0 °F 49% 30.17 in 10.0 mi ENE 4.6 mph - N/A   Clear
12:54 PM 62.4 °F 40.8 °F 45% 30.15 in 10.0 mi NNE 6.9 mph - N/A   Clear
1:14 PM 63.5 °F 39.6 °F 41% 30.15 in 10.0 mi East 4.6 mph - N/A   Clear
1:34 PM 64.0 °F 40.5 °F 42% 30.15 in 10.0 mi Calm Calm - N/A   Clear
1:54 PM 63.9 °F 40.3 °F 42% 30.14 in 10.0 mi Calm Calm - N/A   Clear
2:14 PM 64.4 °F 40.6 °F 42% 30.13 in 10.0 mi North 4.6 mph - N/A   Clear
2:34 PM 63.1 °F 39.9 °F 42% 30.13 in 10.0 mi North 5.8 mph - N/A   Clear
2:54 PM 65.5 °F 41.0 °F 41% 30.14 in 10.0 mi Calm Calm - N/A   Clear
3:14 PM 66.6 °F 42.6 °F 42% 30.13 in 10.0 mi East 4.6 mph - N/A   Clear
3:34 PM 65.7 °F 41.7 °F 42% 30.13 in 10.0 mi North 4.6 mph - N/A   Scattered Clouds
3:54 PM 64.4 °F 41.7 °F 44% 30.13 in 10.0 mi East 3.5 mph - N/A   Clear
4:14 PM 64.4 °F 41.9 °F 44% 30.13 in 10.0 mi Calm Calm - N/A   Scattered Clouds
4:34 PM 65.7 °F 41.5 °F 41% 30.13 in 10.0 mi Calm Calm - N/A   Mostly Cloudy
4:54 PM 64.8 °F 42.6 °F 45% 30.13 in 10.0 mi NE 9.2 mph - N/A   Mostly Cloudy
5:14 PM 66.0 °F 42.3 °F 42% 30.13 in 10.0 mi ENE 9.2 mph - N/A   Mostly Cloudy
5:34 PM 63.3 °F 41.9 °F 46% 30.13 in 10.0 mi ENE 5.8 mph - N/A   Mostly Cloudy
5:54 PM 63.0 °F 41.9 °F 46% 30.14 in 10.0 mi ENE 5.8 mph - N/A   Mostly Cloudy
6:14 PM 62.2 °F 41.7 °F 47% 30.14 in 10.0 mi ENE 6.9 mph - N/A   Scattered Clouds
6:34 PM 61.0 °F 43.5 °F 53% 30.14 in 10.0 mi ENE 4.6 mph - N/A   Clear
6:54 PM 60.3 °F 44.6 °F 56% 30.15 in 10.0 mi Calm Calm - N/A   Scattered Clouds
7:14 PM 59.9 °F 44.8 °F 57% 30.15 in 10.0 mi Calm Calm - N/A   Mostly Cloudy
7:34 PM 59.9 °F 45.0 °F 58% 30.15 in 10.0 mi Calm Calm - N/A   Overcast
7:54 PM 59.4 °F 44.6 °F 58% 30.17 in 10.0 mi Calm Calm - N/A   Overcast
8:14 PM 57.7 °F 45.7 °F 64% 30.17 in 10.0 mi Calm Calm - N/A   Scattered Clouds
8:34 PM 56.5 °F 46.4 °F 69% 30.18 in 10.0 mi Calm Calm - N/A   Scattered Clouds
8:54 PM 56.3 °F 48.6 °F 75% 30.19 in 10.0 mi Calm Calm - N/A   Mostly Cloudy
9:14 PM 55.2 °F 48.0 °F 77% 30.20 in 10.0 mi Calm Calm - N/A   Scattered Clouds
9:34 PM 54.9 °F 48.0 °F 78% 30.20 in 10.0 mi Calm Calm - N/A   Clear
9:54 PM 54.5 °F 48.4 °F 80% 30.21 in 10.0 mi Calm Calm - N/A   Clear
10:14 PM 53.8 °F 48.6 °F 82% 30.21 in 10.0 mi Calm Calm - N/A   Mostly Cloudy
10:34 PM 53.1 °F 49.1 °F 86% 30.22 in 10.0 mi Calm Calm - N/A   Scattered Clouds
10:54 PM 52.0 °F 48.4 °F 88% 30.22 in 10.0 mi Calm Calm - N/A   Clear
11:14 PM 51.6 °F 48.0 °F 87% 30.22 in 10.0 mi Calm Calm - N/A   Clear
11:34 PM 51.8 °F 48.2 °F 88% 30.22 in 10.0 mi Calm Calm - N/A   Clear
11:54 PM 51.4 °F 48.0 °F 88% 30.22 in 10.0 mi Calm Calm - N/A   Clear